Location: Bieujac
(44.5398°N, 0.1549°W)
Time: 13:52:25
(UTC+00:00)

CZ-4C R/B - Visible Passes

Search period start: 22 February 2020 00:00
Search period end: 03 March 2020 00:00
Orbit: 644 x 1358 km, 63.4° (Epoch: 21 February)

Date Brightness Start Highest point End Pass type
(mag) Time Alt. Az. Time Alt. Az. Time Alt. Az.
22 Feb 4.7 02:41:31 17° NNE 02:41:31 17° NNE 02:42:56 10° NNE visible
22 Feb 4.0 04:26:41 19° NNW 04:27:00 19° NNW 04:31:24 10° NNE visible
22 Feb 4.5 06:14:48 10° NNW 06:18:19 15° N 06:22:07 10° NE visible
23 Feb 4.3 03:13:52 21° N 03:13:52 21° N 03:16:23 10° NNE visible
23 Feb 4.3 04:59:02 12° NW 05:01:39 15° N 05:05:18 10° NNE visible
24 Feb 5.1 02:01:03 12° NE 02:01:03 12° NE 02:01:24 10° NE visible
24 Feb 4.2 03:46:13 20° N 03:46:13 20° N 03:49:51 10° NNE visible
24 Feb 4.5 05:33:05 10° NNW 05:36:26 14° N 05:40:06 10° NE visible
25 Feb 4.7 02:33:23 16° NNE 02:33:23 16° NNE 02:34:53 10° NNE visible
25 Feb 4.3 04:18:32 15° NNW 04:19:48 16° NNW 04:23:36 10° NNE visible
25 Feb 4.6 06:07:03 10° NNW 06:11:13 17° NNE 06:15:47 10° NE visible
26 Feb 4.5 03:05:41 18° N 03:05:41 18° N 03:08:19 10° NNE visible
26 Feb 4.6 04:51:18 10° NNW 04:54:34 14° N 04:58:08 10° NNE visible
27 Feb 5.1 01:52:49 12° NNE 01:52:49 12° NNE 01:53:22 10° NNE visible
27 Feb 4.4 03:37:59 16° NNW 03:37:59 16° NNW 03:41:58 10° NNE visible
27 Feb 4.6 05:25:28 10° NNW 05:29:22 16° NNE 05:33:38 10° NE visible
28 Feb 4.8 02:25:06 16° NNE 02:25:06 16° NNE 02:26:47 10° NNE visible
28 Feb 4.6 04:10:16 12° NNW 04:12:43 14° N 04:16:15 10° NNE visible
28 Feb 4.7 05:59:03 10° NNW 06:04:01 21° NNE 06:09:34 10° ENE visible
29 Feb 4.6 02:57:22 17° N 02:57:22 17° N 03:00:21 10° NNE visible
29 Feb 4.7 04:43:51 10° NNW 04:47:31 15° N 04:51:31 10° NE visible
01 Mar 5.1 01:44:28 13° NNE 01:44:28 13° NNE 01:45:17 10° NNE visible
01 Mar 4.6 03:29:37 14° NNW 03:30:51 15° N 03:34:25 10° NNE visible
01 Mar 4.7 05:17:32 10° NNW 05:22:13 19° NNE 05:27:25 10° ENE visible
02 Mar 4.8 02:16:42 16° N 02:16:42 16° N 02:18:47 10° NNE visible
02 Mar 4.7 04:02:10 10° NNW 04:05:39 15° N 04:09:27 10° NE visible
02 Mar 4.5 05:50:53 10° NNW 05:56:40 28° NNE 06:03:12 10° E visible
